星链-11145 [DTC] (STARLINK-11145 [DTC] )

导读

STARLINK-11145是美国于2024年6月5日发射的星链卫星,隶属于SpaceX公司的星链星座项目。星链计划旨在通过大规模低轨卫星组网,为全球提供高速互联网覆盖。该卫星入轨后,将与其他星链卫星协同工作,进一步拓展星座的服务能力,提升全球尤其是偏远地区的网络接入覆盖范围。

Basic Information
目录编号:
59945
目录名称:
STARLINK-11145
国际标识:
2024-107A
轨道中心:
EARTH
卫星名称:
星链-11145 [DTC]
卫星全名:
星链-11145 [DTC] (STARLINK-11145 [DTC] )
卫星状态:
在轨 (已飞行831 天)
发射日期:
2024-06-05 UTC
国别 :
美国 (US)
星等 :
--
This satellite is enrolled in the Space Conjunction Data Service (SCDS) and the current flight risk assessment level is: No High Risk
Orbit Information
数据来源 国际轨道数据
星历时间: 2026-09-14T02:44:49+0800
8小时前
查看轨道信息
半长轴: 6737.835km
偏心率: 0.0001015
轨道倾角: 53.159°
近地点辐角 70.124°
升交点赤经 44.353°
平近点角 289.989°
近地点: 359.014km
远地点: 360.382km
周期: 91.736分钟
每日圈数: 15.697201
Detailed Information
固有亮度:
5
最大亮度:
0.3
卫星平台:
Starlink v2.0 mini
覆盖范围:
全球
运营商:
太空探索技术公司
运营商所在国:
美国
制造商(研发单位):
太空探索技术公司
制造商所在国:
美国
使用方式:
暂无
Satellite Introduction
星链(Starlink)计划是由太空探索技术公司(SpaceX)提出的一个巨型低轨卫星互联网星座项目,计划在2019年至2024年间在太空搭建由约1.2万颗卫星组成的“星链”网络,其中1584颗将部署在地球上空550千米处的近地轨道,并从2020年开始工作。该卫星仍在工作。
2D Orbit Map
3D Orbit Map
Orbit Altitude Analysis Chart
Orbit Inclination Analysis Chart
Orbit Comprehensive Analysis Chart
View Comprehensive Chart
Conjunction Data List
Event ID Objects TCA Miss Dist (km) Collision Risk Probability Collision Risk Index (CRI) Action
CDM_260915-083905-840105-994521
2026-09-15T
08:39:36+0000
0.961 km
远距离
2.962468E-5 中风险 0.64
CDM_260916-043205-840105-994521
2026-09-16T
04:32:35+0000
0.969 km
远距离
2.910611E-5 中风险 0.64
CDM_260916-060405-840105-994521
2026-09-16T
06:04:21+0000
1.827 km
极远距离
3.529171E-6 低风险 0.46
CDM_260915-070705-840105-994521
2026-09-15T
07:07:50+0000
1.820 km
极远距离
3.526638E-6 低风险 0.46
CDM_260916-030005-840105-994522
2026-09-16T
03:00:49+0000
2.489 km
极远距离
1.710863E-6 低风险 0.4
CDM_260915-101105-840105-994523
2026-09-15T
10:11:22+0000
2.529 km
极远距离
1.650549E-6 低风险 0.39
CDM_260913-191104-504805-994522
2026-09-13T
19:11:00+0000
2.654 km
极远距离
2.635553E-7 极低风险 0.23
Miss Distance Evolution Trend with All Objects Subscribe to Flight Safety Assessment
Collision Probability Evolution Trend with All Objects Subscribe to Flight Safety Assessment